星链-1444 (STARLINK-1444 )

导读 | 豆包AI

STARLINK-1444是美国太空探索技术公司星链卫星互联网项目的成员,于2020年6月4日发射升空,属于星链低轨卫星星座组网的一部分。它部署在近地轨道,为全球提供高速卫星互联网接入服务,助力星链完成全球覆盖的组网布局,也推动了低轨卫星互联网的发展进程。

Basic Information
目录编号:
45661
目录名称:
STARLINK-1444
国际标识:
2020-035E
轨道中心:
EARTH
卫星名称:
星链-1444
卫星全名:
星链-1444 (STARLINK-1444 )
卫星状态:
已陨落 最后检测时间 2025-04-19
发射日期:
2020-06-04 UTC
国别 :
美国 (US)
星等 :
--
Orbit Information
数据来源 国际轨道数据
星历时间: 2025-04-19T10:47:04+0800
轨道信息已过期401天
半长轴: 6539.719km
偏心率: 0.0010154
轨道倾角: 53.028°
近地点辐角 257.264°
升交点赤经 344.595°
平近点角 241.757°
近地点: 154.943km
远地点: 168.225km
周期: 87.720分钟
每日圈数: 16.415882
Detailed Information
固有亮度:
5
最大亮度:
2.5
卫星平台:
Starlink V1.0
覆盖范围:
全球
运营商:
太空探索技术公司
运营商所在国:
美国
制造商(研发单位):
太空探索技术公司
制造商所在国:
美国
使用方式:
暂无
Satellite Introduction
星链(Starlink)计划是由太空探索技术公司(SpaceX)提出的一个巨型低轨卫星互联网星座项目,计划在2019年至2024年间在太空搭建由约1.2万颗卫星组成的“星链”网络,其中1584颗将部署在地球上空550千米处的近地轨道,并从2020年开始工作。该卫星仍在工作。